Terminal Aerodrome Forecast
Issued by NWS

Home | Current Version | Previous Version | Text Only | Print | Product List | Glossary On
Versions: 1 2 3 4 5 6 7 8 9 10 11 12 13 14 15 16 17 18 19 20 21 22 23 24 25 26 27 28 29 30 31 32
000
FTUS45 KLKN 180200 AAA
TAFTPH
TAF AMD
KTPH 180227Z 1802/1824 15008KT P6SM FEW100
     FM180800 33007KT P6SM SKC
     FM181800 19010G20KT P6SM FEW100=

USA.gov is the U.S. government's official web portal to all federal, state and local government web resources and services.